STARLINK-31928, 59897

Orbit data source: Space-Track

STARLINK-31928, 59897 is a payload satellite owned by SpaceX/Seattle (US) in LEO that was launched on Tue, 28 May 2024 UTC via an FALCON 9 launch vehicle from the Air Force Eastern Test Range (AFETR). Payload-class satellites include a variety of spacecraft equipped with specific instruments for various scientific and technological missions. These include communications satellites like Starlink; space stations such as the ISS; scientific satellites like the Hubble; Earth observation satellites from companies like Planet Labs, Umbra, and HawkEye 360; GPS; miniature CubeSats for education and research; and military/defense satellites.

Loading next visibility...
Identifier
59897, 2024-100N
Orbit
LEO
Country
Flag of USUS
Related business
Manufacturer
SpaceX/Seattle
Mission
Operational Commercial Communications
Bus & Motor
STARLINK V2M, Unknown motor
Mass
730 kg wet, ~700 kg dry
Launch date (UTC)
2024-05-28 (1 year ago)
Launch vehicle
FALCON 9
Launch site
Air Force Eastern Test Range (AFETR)
Object type
Payload
Rocket body
Debris
Shape & HBR
Box + 2 Pan, 17.7 m
Radar Cross Section
33.884 m², Large (>1 m²)

Expand to show TLE details & history
Last TLE update: 21 hours ago

TLE from 21 hours ago
0 STARLINK-31928
1 59897U 24100N   25310.69829620  .00002236  00000-0  90742-4 0  9997
2 59897  43.0002 100.2692 0001322 246.5667 113.5045 15.27586827 82249
Epoch: 2025-11-06T16:45Z
TLE epoch observation values (Epoch: 2025-11-06T16:45:32.791Z)
Latitude
-0.00008°
Longitude
162.72961°
Altitude
483.166 km
Speed
7.625 km/s
True Right ascension
06h 41m 04s
True Declination
0° 00' 00"
Sunlit
Object was in full shadow at epoch
Visualization orbit readout
Latitude
Unknown
Longitude
Unknown
Altitude
Unknown
Speed
Unknown
Apparent Right ascension
Unknown
Apparent Declination
Unknown
Sunlit
N/A
Visualization observer readout
Local Sidereal Time
10:05:38
Azimuth
Unknown
Elevation
Unknown
Doppler factor
Unknown
Orbital elements
Apogee altitude
485.881 km
Perigee altitude
484.066 km
Semi-major axis
6,863.111 km
Eccentricity
0.00013
Inclination
43.0002°
RAAN
100.2692°
Arg. of periapsis
246.5667°
True anomaly
113.51839°
Mean anomaly
113.5045°
Eccentric anomaly
113.51145°
Mean motion
3.81735 °/min
Orbital period
94.31 mins
BSTAR
0.000090742
Loading maneuver chart data...
Computing Atmospheric mass density...
Loading historical data...
Loading historical data...
Loading historical data...
Loading historical data...
Loading historical data...
Loading historical data...
Loading historical data...

Documentation

Showing up to 5 results
|